Location: Peebles
(55.6412°N, 3.1714°W)
Time: 15:09:41
(UTC+01:00)

Cosmos 1607 - Pass Details

Date: 26 September 2021
Orbit: 915 x 987 km, 65.0° (Epoch: 18 October)

Event Time Altitude Azimuth Distance (km) Brightness Sun altitude
Rises 23:15:56 0° 311° (NW) 3,686 8.0 -31.7°
Reaches altitude 10° 23:18:32 10° 312° (NW) 2,728 7.1 -31.9°
Enters shadow 23:24:09 69° 334° (NNW) 1,030 4.1 -32.3°
